This demonstration page uses our WeatherBlox Daily Observations layout. Learn more.

Left ArrowRight Arrow

36.19886, -115.1175

Hourly Observations for January 29, 2021

Temp ( °F °C ) Dew Point ( °F °C ) Humidity (%) Winds ( mph kmh ) Pressure ( in mb ) Visibility ( mi km ) Precip ( " mm )
12:53 am 00:53 Partly Cloudy 50 10 30 -1.1 46 46 E 9 15 29.83 1010 10 16.0934 0 0
1:53 am 01:53 Mostly Clear 52 11.1 29 -1.7 41 41 ESE 8 13 29.81 1009 10 16.0934 0 0
2:53 am 02:53 Partly Cloudy 50 10 30 -1.1 46 46 ESE 10 17 29.79 1009 10 16.0934 0 0
3:53 am 03:53 Cloudy 51 10.6 30 -1.1 44 44 VRB 5 7 29.79 1009 10 16.0934 0 0
4:53 am 04:53 Cloudy 52 11.1 31 -0.6 45 45 SW 9 15 29.8 1009 10 16.0934 0 0
5:53 am 05:53 Cloudy 50 10 34 1.1 54 54 SSW 13 20 29.8 1009 10 16.0934 0 0
6:53 am 06:53 Partly Cloudy 48 8.9 35 1.7 61 61 SSE 8 13 29.82 1010 10 16.0934 0 0
7:53 am 07:53 Cloudy 49 9.4 34 1.1 56 56 SSE 7 11 29.84 1011 10 16.0934 0 0
8:53 am 08:53 Mostly Cloudy 50 10 35 1.7 57 57 S 14 22 29.85 1011 10 16.0934 0 0
9:53 am 09:53 Partly Cloudy 52 11.1 35 1.7 53 53 S 15 24 29.85 1011 10 16.0934 0 0
10:53 am 10:53 Cloudy with Light Rain 49 9.4 34 1.1 56 56 SW 18 30 29.86 1011 10 16.0934 0.01 0.254
11:53 am 11:53 Sunny 51 10.6 35 1.7 54 54 SW 9 15 29.83 1010 10 16.0934 0.001 0.001
12:53 pm 12:53 Mostly Cloudy 53 11.7 32 0 45 45 W 10 17 29.81 1010 10 16.0934 0 0
1:53 pm 13:53 Mostly Sunny 54 12.2 29 -1.7 38 38 SW 14 22 29.79 1009 10 16.0934 0 0
2:53 pm 14:53 Mostly Sunny 56 13.3 25 -3.9 30 30 SW 20 31 29.79 1009 10 16.0934 0 0
3:53 pm 15:53 Sunny 54 12.2 25 -3.9 33 33 SW 16 26 29.8 1009 10 16.0934 0 0
4:53 pm 16:53 Sunny 53 11.7 25 -3.9 34 34 WSW 12 19 29.83 1010 10 16.0934 0 0
5:53 pm 17:53 Clear 51 10.6 26 -3.3 38 38 SW 12 19 29.87 1012 10 16.0934 0 0
6:53 pm 18:53 Clear 50 10 27 -2.8 41 41 Calm 29.91 1013 10 16.0934 0 0
7:53 pm 19:53 Clear 46 7.8 27 -2.8 47 47 W 7 11 29.93 1014 10 16.0934 0 0
8:53 pm 20:53 Clear 46 7.8 26 -3.3 46 46 VRB 3 6 29.96 1015 10 16.0934 0 0
9:53 pm 21:53 Clear 45 7.2 26 -3.3 48 48 W 8 13 29.97 1015 10 16.0934 0 0
10:53 pm 22:53 Clear 44 6.7 25 -3.9 47 47 Calm 30 1016 10 16.0934 0 0
11:53 pm 23:53 Clear 44 6.7 25 -3.9 47 47 VRB 3 6 30.02 1017 10 16.0934 0 0

Powered by AerisWeather